Change the Weather History Date:

Tuesday, December 10, 2013

  Actual Average Record
Temperature  
Mean Temperature 30 °F -  
Max Temperature 45 °F - - ()
Min Temperature 15 °F - - ()
Degree Days  
Heating Degree Days 35    
Moisture  
Dew Point 23 °F    
Average Humidity 84    
Maximum Humidity 100    
Minimum Humidity 45    
Precipitation  
Precipitation 0.00 in 0.05 in - ()
Sea Level Pressure  
Sea Level Pressure 30.39 in    
Wind  
Wind Speed 1 mph ()    
Max Wind Speed 7 mph    
Max Gust Speed -    
Visibility 4.3 miles    
Events Fog    
T = Trace of Precipitation, MM = Missing Value Source: Averaged Metar Reports

Daily Weather History Graph

Daily Weather History Graph

Search for Another Location

Airport or City:

Trip Planner

Search our weather history database for the weather conditions in past years. The results will help you decide how hot, cold, wet, or windy it might be!

Date:

Astronomy

Dec. 10, 2013 Rise Set
Actual Time 8:35 AM CET 5:53 PM CET
Civil Twilight 8:04 AM CET 6:24 PM CET
Nautical Twilight 7:30 AM CET 6:59 PM CET
Astronomical Twilight 6:57 AM CET 7:32 PM CET
Moon 1:50 PM CET (12/10) 1:36 AM CET (12/10)
Length of Visible Light 10h 19m
Length of Day
9h 17m
First Quarter, 59% of the Moon is Illuminated
Dec 10
First Quarter
Dec 17
Full
Dec 25
Last Quarter
Jan 1
New
Jan 8
First Quarter

Hourly Weather History & Observations

Time (CET) Temp. Windchill Dew Point Humidity Pressure Visibility Wind Dir Wind Speed Gust Speed Precip Events Conditions
12:00 AM 20 °F - 19 °F 94%  in - Calm Calm - -  
12:00 AM 21.2 °F - 21.2 °F 100% 30.42 in 3.7 mi Calm Calm - N/A   Unknown
12:30 AM 21.2 °F - 21.2 °F 100% 30.42 in 3.7 mi Calm Calm - N/A   Unknown
1:00 AM 20 °F - 18 °F 91%  in 4 mi Calm Calm - -   Mist
1:00 AM 21.2 °F - 19.4 °F 93% 30.42 in 3.7 mi Calm Calm - N/A   Unknown
1:30 AM 19.4 °F - 19.4 °F 100% 30.39 in 3.7 mi Calm Calm - N/A   Unknown
2:00 AM 19 °F - 17 °F 91%  in - Calm Calm - -  
2:00 AM 19.4 °F - 17.6 °F 93% 30.39 in 3.7 mi Calm Calm - N/A   Unknown
2:30 AM 19.4 °F - 17.6 °F 93% 30.39 in 4.3 mi Calm Calm - N/A   Unknown
3:00 AM 18 °F - 16 °F 88%  in - Calm Calm - -  
3:00 AM 17.6 °F - 17.6 °F 100% 30.42 in 4.3 mi Calm Calm - N/A   Unknown
3:30 AM 19.4 °F - 17.6 °F 93% 30.39 in 4.3 mi Calm Calm - N/A   Unknown
4:00 AM 17.6 °F - 15.8 °F 93% 30.42 in 5.0 mi Calm Calm - N/A   Unknown
4:30 AM 17.6 °F - 15.8 °F 93% 30.39 in 5.0 mi Calm Calm - N/A   Unknown
5:00 AM 17 °F - 15 °F 87%  in - Calm Calm - -  
5:00 AM 17.6 °F - 15.8 °F 93% 30.39 in 4.3 mi Calm Calm - N/A   Unknown
5:30 AM 17.6 °F - 15.8 °F 93% 30.39 in 4.3 mi Variable 1.2 mph - N/A   Unknown
6:00 AM 16 °F - 14 °F 89%  in - Calm Calm - -  
6:00 AM 15.8 °F - 15.8 °F 100% 30.39 in 4.3 mi Calm Calm - N/A   Unknown
6:30 AM 17.6 °F - 15.8 °F 93% 30.39 in 4.3 mi Variable 1.2 mph - N/A   Unknown
7:00 AM 16 °F - 14 °F 88%  in 4 mi East 2.3 mph - -   Mist
7:00 AM 15.8 °F - 15.8 °F 100% 30.39 in 4.3 mi Variable 1.2 mph - N/A   Unknown
7:30 AM 17.6 °F - 15.8 °F 93% 30.39 in 4.3 mi Variable 2.3 mph - N/A   Unknown
8:00 AM 17 °F - 15 °F 85%  in - East 3.5 mph - -  
8:00 AM 17.6 °F - 15.8 °F 93% 30.39 in 4.3 mi Variable 2.3 mph - N/A   Unknown
8:30 AM 17.6 °F - 15.8 °F 93% 30.42 in 3.7 mi Variable 1.2 mph - N/A   Unknown
9:00 AM 17 °F - 15 °F 88%  in - Calm Calm - -  
9:00 AM 17.6 °F - 15.8 °F 93% 30.42 in 5.0 mi Variable 1.2 mph - N/A   Unknown
9:30 AM 21.2 °F - 19.4 °F 93% 30.42 in 5.0 mi Calm Calm - N/A   Unknown
10:00 AM 23.0 °F - 19.4 °F 86% 30.42 in 5.0 mi Calm Calm - N/A   Unknown
10:30 AM 26.6 °F - 23.0 °F 86% 30.42 in 5.6 mi Calm Calm - N/A   Unknown
11:00 AM 30 °F - 25 °F 74%  in - East 2.3 mph - -  
11:00 AM 28.4 °F - 24.8 °F 86% 30.42 in - Variable 1.2 mph - N/A   Clear
11:30 AM 32.0 °F - 26.6 °F 80% 30.42 in - Variable 1.2 mph - N/A   Clear
12:00 PM 36 °F - 28 °F 65%  in - ESE 1.2 mph - -  
12:00 PM 33.8 °F - 28.4 °F 81% 30.42 in - Variable 1.2 mph - N/A   Clear
12:30 PM 35.6 °F - 28.4 °F 75% 30.42 in - Calm Calm - N/A   Clear
1:00 PM 40 °F - 29 °F 55%  in 7 mi East 4.6 mph - -   Clear
1:00 PM 39.2 °F 37.0 °F 30.2 °F 70% 30.39 in - East 3.5 mph - N/A   Clear
1:30 PM 41.0 °F - 30.2 °F 65% 30.39 in - Variable 2.3 mph - N/A   Clear
2:00 PM 42 °F - 29 °F 48%  in - East 3.5 mph - -  
2:00 PM 41.0 °F 39.0 °F 28.4 °F 61% 30.39 in - East 3.5 mph - N/A   Clear
2:30 PM 42.8 °F 39.3 °F 30.2 °F 61% 30.36 in - East 5.8 mph - N/A   Clear
3:00 PM 44 °F - 30 °F 45%  in - ENE 6.9 mph - -  
3:00 PM 44.6 °F 40.7 °F 30.2 °F 57% 30.36 in - ENE 6.9 mph - N/A   Clear
3:30 PM 44.6 °F 41.4 °F 30.2 °F 57% 30.36 in - East 5.8 mph - N/A   Clear
4:00 PM 44.6 °F 40.7 °F 32.0 °F 61% 30.36 in - East 6.9 mph - N/A   Clear
4:30 PM 44.6 °F 41.4 °F 32.0 °F 61% 30.36 in - East 5.8 mph - N/A   Clear
5:00 PM 42 °F - 31 °F 54%  in - ENE 3.5 mph - -  
5:00 PM 42.8 °F 41.1 °F 32.0 °F 66% 30.36 in - ENE 3.5 mph - N/A   Clear
5:30 PM 39.2 °F 37.0 °F 32.0 °F 75% 30.36 in 5.6 mi East 3.5 mph - N/A   Unknown
6:00 PM 37 °F - 29 °F 65%  in - East 5.8 mph - -  
6:00 PM 37.4 °F 33.8 °F 30.2 °F 75% 30.36 in 5.0 mi East 4.6 mph - N/A   Unknown
6:30 PM 32.0 °F - 30.2 °F 93% 30.36 in 5.0 mi Calm Calm - N/A   Unknown
7:00 PM 30 °F - 25 °F 75%  in 5 mi Calm Calm - -   Mist
7:00 PM 30.2 °F - 26.6 °F 86% 30.36 in 5.0 mi Variable 1.2 mph - N/A   Unknown
7:30 PM 30.2 °F - 28.4 °F 93% 30.36 in 5.0 mi Calm Calm - N/A   Unknown
8:00 PM 28 °F - 26 °F 90%  in - Calm Calm - -  
8:00 PM 28.4 °F - 28.4 °F 100% 30.36 in 5.0 mi Calm Calm - N/A   Unknown
8:30 PM 24.8 °F - 24.8 °F 100% 30.36 in 4.3 mi Calm Calm - N/A   Unknown
9:00 PM 25 °F - 24 °F 94%  in - SE 1.2 mph - -  
9:00 PM 26.6 °F - 24.8 °F 93% 30.36 in 3.7 mi Calm Calm - N/A   Unknown
9:30 PM 23.0 °F - 23.0 °F 100% 30.36 in 3.7 mi Variable 2.3 mph - N/A   Unknown
10:00 PM 23.0 °F - 21.2 °F 93% 30.36 in 3.7 mi Calm Calm - N/A   Unknown
10:30 PM 21.2 °F - 19.4 °F 93% 30.36 in 3.7 mi Calm Calm - N/A   Unknown
11:00 PM 21 °F - 19 °F 91%  in - Calm Calm - -  
11:00 PM 21.2 °F - 21.2 °F 100% 30.36 in 3.7 mi Calm Calm - N/A   Unknown
11:30 PM 19.4 °F - 19.4 °F 100% 30.36 in 2.5 mi Calm Calm - N/A   Mist
11:43 PM 19.4 °F - 19.4 °F 100% 30.36 in 0.6 mi Calm Calm - N/A Fog Patches of Fog